STARLINK-32719

Last updated on Wed Jan 29 2025 00:02:04 GMT+0000 (Coordinated Universal Time)

1 62448U 24251S 25028.49747520 .00004092 00000+0 32700-4 0 9993 2 62448 53.1586 64.2870 0001290 85.5612 274.5555 15.73830527 5649
UTC large
Height (km)
Speed (km/s)
/
Latitude / Longitude
Inclination (degrees)
Orbital Period (minutes)
Azimuth
Elevation
Range (km)
Doppler Factor

Next 0 passes for location: London (51.5072 / 0.1276)

Sorry there are no passes over London.